Location: Newark
(37.8444°N, 127.0614°E)
Time: 02:00:45
(UTC+00:00)

XW-2F - Pass Details

Date: 25 January 2020
Orbit: 502 x 523 km, 97.5° (Epoch: 26 February)

Event Time Altitude Azimuth Distance (km) Brightness Sun altitude
Rises 21:53:58 0° 6° (N) 2,608 ? -9.6°
Reaches altitude 10° 21:56:06 10° 1° (N) 1,718 ? -9.2°
Maximum altitude 21:59:41 50° 285° (WNW) 643 ? -8.5°
Drops below altitude 10° 22:03:15 10° 209° (SSW) 1,703 ? -7.8°
Sets 22:05:21 0° 204° (SSW) 2,583 ? -7.5°
